Weather History for Pontiac, MI

Change the Weather History Date:

Thursday, October 17, 2013

  Actual Average Record
Temperature  
Mean Temperature 48 °F -  
Max Temperature 52 °F 56 °F 73 °F (1998)
Min Temperature 46 °F 39 °F 28 °F (2002)
Degree Days  
Heating Degree Days 16    
Moisture  
Dew Point 46 °F    
Average Humidity 88    
Maximum Humidity 94    
Minimum Humidity 76    
Precipitation  
Precipitation 0.23 in - - ()
Sea Level Pressure  
Sea Level Pressure 29.81 in    
Wind  
Wind Speed 7 mph (SW)    
Max Wind Speed 17 mph    
Max Gust Speed 23 mph    
Visibility 8 miles    
Events Rain    
Averages and records for this station are not official NWS values.
T = Trace of Precipitation, MM = Missing Value Source: NWS Daily Summary

Daily Weather History Graph

Daily Weather History Graph

Search for Another Location

Airport:

Trip Planner

Search our weather history database for the weather conditions in past years. The results will help you decide how hot, cold, wet, or windy it might be!

Date:

Astronomy

Oct. 17, 2013 Rise Set
Actual Time 7:49 AM EDT 6:47 PM EDT
Civil Twilight 7:20 AM EDT 7:16 PM EDT
Nautical Twilight 6:48 AM EDT 7:48 PM EDT
Astronomical Twilight 6:15 AM EDT 8:21 PM EDT
Moon 6:02 PM EDT (10/17) 6:19 AM EDT (10/17)
Length of Visible Light 11h 55m
Length of Day
10h 58m
Waxing Gibbous, 98% of the Moon is Illuminated
Oct 17
Waxing Gibbous
Oct 18
Full
Oct 26
Last Quarter
Nov 3
New
Nov 10
First Quarter

Hourly Weather History & Observations

Time (EDT) Temp. Windchill Dew Point Humidity Pressure Visibility Wind Dir Wind Speed Gust Speed Precip Events Conditions
12:53 AM 51.1 °F - 46.0 °F 83% 29.89 in 10.0 mi WSW 10.4 mph - N/A   Overcast
1:53 AM 51.1 °F - 45.0 °F 80% 29.89 in 10.0 mi SW 8.1 mph - N/A   Overcast
2:31 AM 51.8 °F - 44.6 °F 76% 29.88 in 10.0 mi WSW 8.1 mph - N/A   Overcast
2:53 AM 51.1 °F - 46.0 °F 83% 29.89 in 10.0 mi WSW 6.9 mph - N/A   Overcast
3:53 AM 50.0 °F - 46.0 °F 86% 29.88 in 10.0 mi West 5.8 mph - N/A   Overcast
4:47 AM 50.0 °F - 46.4 °F 87% 29.87 in 7.0 mi SW 4.6 mph - 0.00 in Rain Light Rain
4:53 AM 50.0 °F - 46.9 °F 89% 29.88 in 7.0 mi SSW 3.5 mph - 0.00 in Rain Light Rain
5:04 AM 48.2 °F - 46.4 °F 93% 29.87 in 9.0 mi WSW 5.8 mph - 0.00 in   Overcast
5:23 AM 48.2 °F - 46.4 °F 93% 29.87 in 9.0 mi WSW 4.6 mph - 0.00 in   Overcast
5:53 AM 50.0 °F - 46.9 °F 89% 29.87 in 9.0 mi WSW 4.6 mph - 0.00 in   Overcast
6:30 AM 48.2 °F - 46.4 °F 93% 29.86 in 9.0 mi WSW 3.5 mph - N/A   Overcast
6:37 AM 50.0 °F - 46.4 °F 87% 29.86 in 9.0 mi WSW 3.5 mph - N/A   Overcast
6:53 AM 50.0 °F - 46.0 °F 86% 29.86 in 9.0 mi WSW 3.5 mph - N/A   Overcast
7:53 AM 50.0 °F - 46.0 °F 86% 29.87 in 9.0 mi SSW 5.8 mph - N/A   Overcast
8:53 AM 50.0 °F - 46.9 °F 89% 29.87 in 7.0 mi SW 5.8 mph - N/A   Overcast
9:53 AM 50.0 °F - 46.0 °F 86% 29.88 in 10.0 mi SSW 5.8 mph - N/A   Overcast
10:49 AM 51.8 °F - 46.4 °F 82% 29.85 in 10.0 mi Calm Calm - N/A   Overcast
10:53 AM 51.1 °F - 46.0 °F 83% 29.86 in 10.0 mi Calm Calm - N/A   Overcast
11:09 AM 51.8 °F - 46.4 °F 82% 29.85 in 10.0 mi Calm Calm - N/A   Overcast
11:53 AM 51.1 °F - 46.9 °F 86% 29.84 in 7.0 mi South 3.5 mph - 0.02 in Rain Light Rain
12:08 PM 51.8 °F - 46.4 °F 82% 29.83 in 10.0 mi South 3.5 mph - 0.00 in   Overcast
12:42 PM 51.8 °F - 48.2 °F 88% 29.82 in 7.0 mi South 6.9 mph - 0.00 in Rain Light Rain
12:50 PM 51.8 °F - 48.2 °F 88% 29.82 in 6.0 mi South 8.1 mph - 0.00 in Rain Light Rain
12:53 PM 51.1 °F - 48.0 °F 89% 29.83 in 6.0 mi South 8.1 mph - 0.00 in Rain Light Rain
1:24 PM 50.0 °F - 48.2 °F 94% 29.79 in 3.0 mi South 5.8 mph - 0.03 in Rain Rain
1:53 PM 50.0 °F - 48.0 °F 93% 29.79 in 2.5 mi SSW 4.6 mph - 0.05 in Rain Rain
2:28 PM 50.0 °F - 48.2 °F 94% 29.78 in 3.0 mi SSW 8.1 mph - 0.07 in Rain Light Rain
2:53 PM 50.0 °F - 48.0 °F 93% 29.78 in 4.0 mi SSW 8.1 mph - 0.09 in Rain Light Rain
3:00 PM 50.0 °F - 48.2 °F 94% 29.76 in 4.0 mi SSW 5.8 mph - 0.01 in Rain Light Rain
3:19 PM 50.0 °F - 46.4 °F 87% 29.77 in 6.0 mi SW 8.1 mph - 0.03 in Rain Light Rain
3:37 PM 50.0 °F - 46.4 °F 87% 29.76 in 10.0 mi SSW 5.8 mph - 0.03 in Rain Light Rain
3:53 PM 50.0 °F - 46.9 °F 89% 29.77 in 8.0 mi SSW 6.9 mph - 0.03 in Rain Light Rain
4:08 PM 50.0 °F - 46.4 °F 87% 29.76 in 9.0 mi SSW 6.9 mph - 0.00 in Rain Light Rain
4:31 PM 50.0 °F - 46.4 °F 87% 29.75 in 6.0 mi SSW 9.2 mph - 0.01 in Rain Light Rain
4:41 PM 50.0 °F - 46.4 °F 87% 29.75 in 5.0 mi SSW 5.8 mph - 0.02 in Rain Light Rain
4:53 PM 50.0 °F - 46.9 °F 89% 29.75 in 7.0 mi SW 8.1 mph - 0.03 in Rain Light Rain
4:56 PM 50.0 °F - 46.4 °F 87% 29.75 in 9.0 mi SW 9.2 mph - 0.00 in Rain Light Rain
5:13 PM 50.0 °F - 46.4 °F 87% 29.74 in 10.0 mi SW 6.9 mph - 0.00 in Rain Light Rain
5:24 PM 50.0 °F - 46.4 °F 87% 29.74 in 10.0 mi SW 6.9 mph - 0.00 in Rain Light Rain
5:37 PM 50.0 °F - 46.4 °F 87% 29.74 in 10.0 mi SW 5.8 mph - 0.00 in Rain Light Rain
5:48 PM 48.2 °F - 46.4 °F 93% 29.74 in 9.0 mi SW 5.8 mph - 0.00 in Rain Light Rain
5:53 PM 48.9 °F - 46.0 °F 90% 29.75 in 5.0 mi SW 8.1 mph - 0.00 in Rain Light Rain
6:05 PM 48.2 °F - 46.4 °F 93% 29.74 in 2.0 mi WSW 11.5 mph - 0.01 in Rain Light Rain
6:14 PM 48.2 °F - 46.4 °F 93% 29.74 in 5.0 mi WSW 8.1 mph - 0.01 in Rain Light Rain
6:40 PM 48.2 °F - 44.6 °F 87% 29.74 in 10.0 mi WSW 8.1 mph - 0.01 in   Mostly Cloudy
6:53 PM 48.0 °F - 45.0 °F 89% 29.75 in 10.0 mi WSW 6.9 mph - 0.01 in   Mostly Cloudy
7:48 PM 48.2 °F - 44.6 °F 87% 29.75 in 10.0 mi SW 8.1 mph - N/A   Overcast
7:53 PM 48.9 °F - 45.0 °F 86% 29.76 in 10.0 mi SW 9.2 mph - N/A   Overcast
8:28 PM 48.2 °F - 44.6 °F 87% 29.75 in 10.0 mi SSW 6.9 mph - 0.00 in   Overcast
8:53 PM 48.0 °F - 46.0 °F 93% 29.77 in 9.0 mi SW 10.4 mph - 0.00 in   Overcast
9:12 PM 48.2 °F - 46.4 °F 93% 29.77 in 6.0 mi WSW 9.2 mph - 0.00 in Rain Light Rain
9:29 PM 48.2 °F - 46.4 °F 93% 29.77 in 6.0 mi West 9.2 mph - 0.00 in Rain Light Rain
9:53 PM 48.9 °F - 45.0 °F 86% 29.79 in 10.0 mi WNW 15.0 mph 23.0 mph 0.00 in   Overcast
10:00 PM 48.2 °F - 44.6 °F 87% 29.79 in 10.0 mi WNW 15.0 mph - N/A   Overcast
10:12 PM 48.2 °F - 44.6 °F 87% 29.79 in 10.0 mi West 16.1 mph - N/A   Overcast
10:19 PM 48.2 °F - 44.6 °F 87% 29.79 in 10.0 mi WNW 17.3 mph 20.7 mph N/A   Overcast
10:38 PM 48.2 °F - 44.6 °F 87% 29.81 in 10.0 mi West 13.8 mph - N/A   Mostly Cloudy
10:53 PM 46.9 °F - 44.1 °F 90% 29.82 in 10.0 mi West 17.3 mph 23.0 mph N/A   Mostly Cloudy
11:00 PM 46.4 °F 40.1 °F 42.8 °F 87% 29.82 in 10.0 mi West 15.0 mph - N/A   Mostly Cloudy
11:26 PM 46.4 °F 41.1 °F 42.8 °F 87% 29.82 in 10.0 mi West 11.5 mph - N/A   Mostly Cloudy
11:53 PM 46.0 °F 40.6 °F 43.0 °F 89% 29.83 in 10.0 mi West 11.5 mph - N/A   Scattered Clouds